DW8816 Weather Reports


time (UTC)temp
F
wind
direction
speed
knots
gust
knots
rain 1hr
in
rain 24hr
in
rain mn
in
humidity
%
barometer
mb
20260507222003 53 0 0.0 0.9 0.00 0.00 0.00 78 1015.9
20260507220004 53 109 0.0 0.9 0.00 0.00 0.00 78 1015.8
20260507215004 53 109 0.0 2.6 0.00 0.00 0.00 77 1015.8
20260507214004 53 107 0.9 3.5 0.00 0.00 0.00 78 1015.8
20260507213003 53 106 0.9 1.7 0.00 0.00 0.00 78 1015.8
20260507212004 53 116 0.0 3.5 0.00 0.00 0.00 78 1015.8
20260507211004 53 140 0.9 6.1 0.00 0.00 0.00 78 1015.7
20260507210003 54 130 0.0 5.2 0.00 0.00 0.00 78 1015.6
20260507205003 54 129 1.7 6.1 0.00 0.00 0.00 78 1015.6
20260507203004 54 135 1.7 7.8 0.00 0.00 0.00 77 1015.4
20260507202004 54 117 1.7 7.0 0.00 0.00 0.00 77 1015.3
20260507201003 54 134 0.9 6.1 0.00 0.00 0.00 77 1015.2
20260507200004 54 131 0.9 4.3 0.00 0.00 0.00 76 1015.1
20260507195004 54 128 0.9 7.0 0.00 0.00 0.00 76 1014.9
20260507194003 54 128 1.7 6.1 0.00 0.00 0.00 76 1014.8
20260507193004 55 131 2.6 7.0 0.00 0.00 0.00 76 1014.7
20260507192003 55 122 2.6 7.0 0.00 0.00 0.00 75 1014.6
20260507191004 55 131 2.6 7.0 0.00 0.00 0.00 75 1014.6
20260507190005 55 134 3.5 7.8 0.00 0.00 0.00 74 1014.6
20260507185003 55 141 2.6 8.7 0.00 0.00 0.00 74 1014.5
20260507184004 55 129 2.6 10.4 0.00 0.00 0.00 73 1014.5
20260507183003 56 120 1.7 7.0 0.00 0.00 0.00 72 1014.5
20260507182003 56 123 2.6 7.0 0.00 0.00 0.00 72 1014.4
20260507181004 56 127 2.6 8.7 0.00 0.00 0.00 71 1014.3
20260507174004 57 137 2.6 7.8 0.00 0.00 0.00 67 1014.2
20260507173003 57 131 2.6 7.8 0.00 0.00 0.00 68 1014.1
20260507172003 57 121 2.6 7.8 0.00 0.00 0.00 68 1014.1
20260507171004 58 123 1.7 7.8 0.00 0.00 0.00 67 1014.1
20260507170004 58 126 2.6 7.0 0.00 0.00 0.00 64 1014.1
20260507165004 57 124 3.5 8.7 0.00 0.00 0.00 64 1014.0
20260507164004 58 115 1.7 7.8 0.00 0.00 0.00 63 1014.1
20260507163004 58 144 1.7 6.1 0.00 0.00 0.00 62 1014.1
20260507162004 59 129 1.7 7.0 0.00 0.00 0.00 62 1014.1
20260507161005 59 123 1.7 7.0 0.00 0.00 0.00 63 1014.1
20260507160004 59 153 0.9 5.2 0.00 0.00 0.00 62 1014.1
20260507155004 59 111 1.7 5.2 0.00 0.00 0.00 61 1014.2
20260507154004 59 120 1.7 6.1 0.00 0.00 0.00 62 1014.2
20260507153004 59 123 1.7 7.0 0.00 0.00 0.00 61 1014.2
20260507152004 58 110 2.6 7.0 0.00 0.00 0.00 62 1014.2
20260507151003 58 119 1.7 7.8 0.00 0.00 0.00 62 1014.4
20260507145004 59 126 1.7 7.0 0.00 0.00 0.00 62 1014.3
20260507144004 58 122 1.7 4.3 0.00 0.00 0.00 62 1014.4
20260507143004 58 124 2.6 7.0 0.00 0.00 0.00 62 1014.4
20260507142004 58 104 2.6 7.8 0.00 0.00 0.00 62 1014.4
20260507140004 58 128 1.7 7.0 0.00 0.00 0.00 62 1014.6
20260507134004 58 128 2.6 10.4 0.00 0.00 0.00 64 1014.6
20260507133004 58 117 2.6 9.6 0.00 0.00 0.00 64 1014.7
20260507131004 56 96 1.7 5.2 0.00 0.00 0.00 66 1014.8
20260507130005 56 78 0.9 3.5 0.00 0.00 0.00 67 1014.9
20260507125005 56 86 1.7 3.5 0.00 0.00 0.00 67 1015.0
20260507123003 56 76 1.7 4.3 0.00 0.00 0.00 70 1015.0
20260507122004 55 39 1.7 3.5 0.00 0.00 0.00 69 1015.0
20260507121005 55 62 1.7 3.5 0.00 0.00 0.00 70 1015.1
20260507120004 54 62 1.7 3.5 0.00 0.00 0.00 69 1015.2
20260507114004 54 105 1.7 3.5 0.00 0.00 0.00 70 1015.1
20260507113004 55 333 1.7 5.2 0.00 0.00 0.00 70 1015.2
20260507112004 56 288 0.9 5.2 0.00 0.00 0.00 70 1015.3
20260507111004 55 320 0.9 2.6 0.00 0.00 0.00 70 1015.3
20260507110005 54 316 1.7 4.3 0.00 0.00 0.00 70 1015.4
20260507105003 54 15 2.6 4.3 0.00 0.00 0.00 72 1015.4
20260507103004 55 271 0.0 4.3 0.00 0.00 0.00 72 1015.5
20260507101004 55 205 0.9 2.6 0.00 0.00 0.00 67 1015.4
20260507100003 55 225 0.9 4.3 0.00 0.00 0.00 72 1015.4
20260507094003 54 137 1.7 4.3 0.00 0.00 0.00 72 1015.5
20260507093004 54 127 2.6 7.0 0.00 0.00 0.00 69 1015.4
20260507092004 55 136 1.7 6.1 0.00 0.00 0.00 73 1015.4
20260507091005 53 117 0.9 5.2 0.00 0.00 0.00 77 1015.5
20260507090005 53 190 0.9 4.3 0.00 0.00 0.00 78 1015.4
20260507085003 52 168 0.0 3.5 0.00 0.00 0.00 79 1015.4
20260507084004 52 168 0.0 1.7 0.00 0.00 0.00 79 1015.4
20260507083004 52 168 0.0 3.5 0.00 0.00 0.00 80 1015.4
20260507082004 51 0 0.0 3.5 0.00 0.00 0.00 81 1015.5
20260507081005 51 0 0.0 1.7 0.00 0.00 0.00 81 1015.5
20260507080004 52 0 0.0 3.5 0.00 0.00 0.00 80 1015.4
20260507075006 52 166 0.9 2.6 0.00 0.00 0.00 80 1015.3
20260507074004 52 165 0.9 4.3 0.00 0.00 0.00 80 1015.4
20260507073003 52 139 0.9 4.3 0.00 0.00 0.00 82 1015.3
20260507072003 51 123 1.7 4.3 0.00 0.00 0.00 82 1015.3
20260507071004 51 114 0.9 5.2 0.00 0.00 0.00 83 1015.3
20260507070008 50 117 1.7 6.1 0.00 0.00 0.00 86 1015.3
20260507065003 50 84 0.9 3.5 0.00 0.00 0.00 89 1015.3
20260507064005 48 0 0.0 0.9 0.00 0.00 0.00 93 1015.3
20260507063005 47 0 0.0 0.9 0.00 0.00 0.00 92 1015.2
20260507061003 46 72 0.0 1.7 0.00 0.00 0.00 92 1015.2
20260507060004 46 72 0.9 2.6 0.00 0.00 0.00 92 1015.1
20260507055004 46 0 0.0 1.7 0.00 0.00 0.00 92 1015.0
20260507053004 46 0 0.0 1.7 0.00 0.00 0.00 91 1014.8
20260507052004 46 72 0.0 1.7 0.00 0.00 0.00 92 1014.8
20260507051004 46 72 0.9 2.6 0.00 0.00 0.00 91 1014.8
20260507050003 46 0 0.0 2.6 0.00 0.00 0.00 91 1014.7
20260507045003 46 0 0.0 2.6 0.00 0.00 0.00 91 1014.7
20260507044004 46 72 0.0 2.6 0.00 0.00 0.00 91 1014.6
20260507043004 46 72 1.7 2.6 0.00 0.00 0.00 92 1014.7
20260507042005 46 56 1.7 4.3 0.00 0.00 0.00 92 1014.6
20260507040004 45 349 0.0 2.6 0.00 0.00 0.00 92 1014.6
20260507035003 45 349 0.0 1.7 0.00 0.00 0.00 92 1014.6
20260507034003 45 350 0.9 1.7 0.00 0.00 0.00 92 1014.5
20260507033004 45 349 0.9 3.5 0.00 0.00 0.00 92 1014.5
20260507031004 45 346 0.9 2.6 0.00 0.00 0.00 92 1014.5
20260507030003 44 346 0.9 2.6 0.00 0.00 0.00 92 1014.6
20260507025004 44 346 0.0 2.6 0.00 0.00 0.00 92 1014.6
20260507024005 44 346 0.9 3.5 0.00 0.00 0.00 92 1014.6
20260507023005 44 354 1.7 3.5 0.00 0.00 0.00 92 1014.6
20260507022004 44 1 1.7 3.5 0.00 0.00 0.00 91 1014.5
20260507021004 45 5 0.9 3.5 0.00 0.00 0.00 91 1014.5
20260507020004 45 13 0.0 3.5 0.00 0.00 0.00 91 1014.4
20260507015004 46 25 0.0 1.7 0.00 0.00 0.00 91 1014.3
20260507014005 45 25 0.9 2.6 0.00 0.00 0.00 91 1014.3
20260507013004 45 25 0.0 2.6 0.00 0.00 0.00 91 1014.3
20260507012004 45 25 0.9 1.7 0.00 0.00 0.00 91 1014.3
20260507011004 45 25 0.9 2.6 0.00 0.00 0.00 91 1014.3
20260507010004 45 25 0.9 3.5 0.00 0.00 0.00 91 1014.2
20260507003004 45 15 0.9 3.5 0.00 0.00 0.00 91 1014.4
20260507002004 45 13 0.9 2.6 0.00 0.00 0.00 91 1014.5
20260507001005 45 15 0.9 3.5 0.00 0.00 0.00 91 1014.5
20260507000005 45 355 0.9 4.3 0.00 0.00 0.00 91 1014.5
20260506235005 45 354 0.9 3.5 0.00 0.00 0.00 90 1014.4
20260506234004 46 355 0.9 3.5 0.00 0.00 0.00 90 1014.3
20260506233004 46 355 0.9 2.6 0.00 0.00 0.00 89 1014.2
20260506230004 47 354 1.7 4.3 0.00 0.00 0.00 88 1014.2
20260506225004 47 5 0.9 3.5 0.00 0.00 0.00 88 1014.1